SL-16 DEB, 39302

Orbit data source: Space-Track

SL-16 DEB, 39302 is space debris in LEO originally from a launch on Fri, 25 Dec 1992 UTC launched from the Tyuratam Missile And Space Complex (TTMTR). Debris objects in space refer to the collection of defunct objects orbiting the Earth. Examples of debris include non-operational satellites, rocket bodies, and fragments generated from explosions, collisions, or faulty payload assembly.

Loading next visibility...
Identifier
39302, 1992-093JT
Orbit
LEO
Country
Flag of CISCIS
Related business
Manufacturer
Unknown
Mission
Spacecraft
Bus & Motor
Unknown
Mass
Unknown
Launch date (UTC)
1992-12-25 (33 years ago)
Launch vehicle
Unknown
Launch site
Tyuratam Missile And Space Complex (TTMTR)
Object type
Payload
Rocket body
Debris
Shape & HBR
Unknown shape, 0.1 m
Radar Cross Section
Small (<0.1 m²)

Expand to show TLE details & history
Last TLE update: 1 week ago

TLE from 1 week ago
0 SL-16 DEB
1 39302U 92093JT  26166.26417615  .00002631  00000-0  93050-3 0  9995
2 39302  70.9839 354.2107 0107540 315.6040 221.8188 14.32346178658001
Epoch: 2026-06-15T06:20Z
TLE epoch observation values (Epoch: 2026-06-15T06:20:24.819Z)
Latitude
3.11779°
Longitude
174.48425°
Altitude
843.74 km
Speed
7.401 km/s
True Right ascension
11h 32m 33s
True Declination
3° 05' 58"
Sunlit
Object was in daylight at epoch
Visualization orbit readout
Latitude
Unknown
Longitude
Unknown
Altitude
Unknown
Speed
Unknown
Apparent Right ascension
Unknown
Apparent Declination
Unknown
Sunlit
N/A
Visualization observer readout
Local Sidereal Time
03:59:36
Azimuth
Unknown
Elevation
Unknown
Doppler factor
Unknown
Orbital elements
Apogee altitude
858.806 km
Perigee altitude
704.81 km
Semi-major axis
7,159.945 km
Eccentricity
0.01075
Inclination
70.9839°
RAAN
354.2107°
Arg. of periapsis
315.604°
True anomaly
221.0053°
Mean anomaly
221.8188°
Eccentric anomaly
221.41124°
Mean motion
3.58244 °/min
Orbital period
100.49 mins
BSTAR
0.0009305
Loading maneuver chart data...
Computing Atmospheric mass density...
Loading historical data...
Loading historical data...
Loading historical data...
Loading historical data...
Loading historical data...
Loading historical data...
Loading historical data...

Documentation

Showing up to 5 results
|